Starlink 32451

operational
NORAD ID: 61857 Int'l Des: 2024-202 Owner: SPXS Country: US Constellation: starlink
LEOCIRCULAR

About Starlink 32451

Description loading...

Live Position

Loading 3D Globe...

Upcoming Passes

Altitude History

Altitude vs Time

uPlot chart will show altitude changes over time

Two-Line Element Set

1 61857U 24202N 25258.42631848 .00000664 00000-0 33657-4 0 9999
2 61857 43.0031 147.7622 0001585 283.8920 76.1755 15.27584248 48537
Epoch: Sep 15, 2025 • Age: 23 hours

Current Status

Altitude 484.7 km
Velocity 7.63 km/s
Sub-Earth Point 30.56°N, 156.22°E
Launch Date Nov 7, 2024
Age 0.8 years
Type internet

Technical Details

Classification Payload
Mass 730.00 kg
Dry Mass 700.00 kg
Total Mass 730.00 kg
Length 0.30 m
Diameter 4.10 m
Span 29.00 m
Shape Box + pan
Manufacturer SPXS
Bus Type Starlink V2M
Phase Status In Orbit
Owner/State SPXS/US

Large Constellations

Loading constellations...